This is the latest recevied weather packets stored in our database for station/object APPOWX. If no packets are shown the sender has not sent any weather packets the latest 10 day(s).
| Time | Temp. | Humidity | Pressure | Rain* | Wind** | Luminosity | Snow |
|---|---|---|---|---|---|---|---|
| 1778268081 | 20.56° C | 39% | 1016.8 hPa | 0 mm | - | - | - |
| 1778268021 | 20.56° C | 37% | 1016.7 hPa | 0 mm | - | - | - |
| 1778267960 | 21.11° C | 37% | 1016.7 hPa | 0 mm | - | - | - |
| 1778267900 | 21.11° C | 35% | 1016.6 hPa | 0 mm | - | - | - |
| 1778267841 | 21.11° C | 33% | 1016.7 hPa | 0 mm | - | - | - |
| 1778267780 | 21.67° C | 35% | 1016.7 hPa | 0 mm | - | - | - |
| 1778267720 | 21.11° C | 35% | 1016.9 hPa | 0 mm | - | - | - |
| 1778267661 | 20° C | 36% | 1017 hPa | 0 mm | - | - | - |
| 1778267600 | 20° C | 37% | 1016.8 hPa | 0 mm | - | - | - |
| 1778267540 | 20° C | 34% | 1016.7 hPa | 0 mm | - | - | - |
| 1778267481 | 20° C | 34% | 1016.8 hPa | 0 mm | - | - | - |
| 1778267420 | 20° C | 38% | 1016.9 hPa | 0 mm | - | - | - |
| 1778267360 | 20° C | 32% | 1016.8 hPa | 0 mm | - | - | - |
| 1778267300 | 20° C | 34% | 1016.9 hPa | 0 mm | - | - | - |
| 1778267240 | 20° C | 36% | 1016.9 hPa | 0 mm | - | - | - |
| 1778267180 | 20° C | 39% | 1016.9 hPa | 0 mm | - | - | - |
| 1778267120 | 20° C | 34% | 1016.8 hPa | 0 mm | - | - | - |
| 1778267060 | 19.44° C | 35% | 1016.7 hPa | 0 mm | - | - | - |
| 1778267000 | 19.44° C | 34% | 1016.9 hPa | 0 mm | - | - | - |
| 1778266940 | 19.44° C | 35% | 1017 hPa | 0 mm | - | - | - |
| 1778266880 | 19.44° C | 34% | 1017.1 hPa | 0 mm | - | - | - |
| 1778266820 | 19.44° C | 35% | 1017 hPa | 0 mm | - | - | - |
| 1778266760 | 20° C | 33% | 1017 hPa | 0 mm | - | - | - |
| 1778266700 | 20° C | 39% | 1017.2 hPa | 0 mm | - | - | - |
| 1778266640 | 19.44° C | 34% | 1017.1 hPa | 0 mm | - | - | - |
* Rain latest hour (hover to see other rain measurements)
** Current wind speed in m/s (hover to see current wind gust speed)